This is the latest recevied weather packets stored in our database for station/object IZ6UQU-13. If no packets are shown the sender has not sent any weather packets the latest 10 day(s).
| Time | Temp. | Humidity | Pressure | Rain* | Wind** | Luminosity | Snow |
|---|---|---|---|---|---|---|---|
| 1777573203 | 10° C | 77% | 959.8 hPa | 0 mm | - | - | - |
| 1777572903 | 10.56° C | 77% | 959.9 hPa | 0 mm | - | - | - |
| 1777572603 | 10.56° C | 78% | 959.8 hPa | 0 mm | - | - | - |
| 1777572303 | 10.56° C | 78% | 959.7 hPa | 0 mm | - | - | - |
| 1777572003 | 10.56° C | 77% | 959.6 hPa | 0 mm | - | - | - |
| 1777571703 | 10.56° C | 76% | 959.7 hPa | 0 mm | - | - | - |
| 1777571403 | 11.11° C | 75% | 959.6 hPa | 0 mm | - | - | - |
| 1777571103 | 11.11° C | 74% | 959.6 hPa | 0 mm | - | - | - |
| 1777570803 | 11.67° C | 73% | 959.7 hPa | 0 mm | - | - | - |
| 1777570503 | 11.67° C | 73% | 959.7 hPa | 0 mm | - | - | - |
| 1777570203 | 11.67° C | 73% | 959.6 hPa | 0 mm | - | - | - |
| 1777569903 | 12.22° C | 72% | 959.6 hPa | 0 mm | - | - | - |
| 1777569603 | 12.22° C | 72% | 959.6 hPa | 0 mm | - | - | - |
| 1777569303 | 12.78° C | 71% | 959.5 hPa | 0 mm | - | - | - |
| 1777569003 | 13.33° C | 68% | 959.4 hPa | 0 mm | - | - | - |
| 1777568703 | 13.89° C | 67% | 959.4 hPa | 0 mm | - | - | - |
| 1777568403 | 14.44° C | 64% | 959.2 hPa | 0 mm | - | - | - |
| 1777568103 | 14.44° C | 66% | 959.2 hPa | 0 mm | - | - | - |
| 1777567803 | 14.44° C | 67% | 959.2 hPa | 0 mm | - | - | - |
| 1777567503 | 14.44° C | 67% | 959.2 hPa | 0 mm | - | - | - |
| 1777566903 | 13.33° C | 68% | 959.2 hPa | 0 mm | - | - | - |
| 1777566603 | 13.33° C | 66% | 959.2 hPa | 0 mm | - | - | - |
| 1777566303 | 13.89° C | 67% | 959.2 hPa | 0 mm | - | - | - |
| 1777566003 | 13.89° C | 68% | 959.2 hPa | 0 mm | - | - | - |
| 1777565703 | 13.33° C | 68% | 959.2 hPa | 0 mm | - | - | - |
* Rain latest hour (hover to see other rain measurements)
** Current wind speed in m/s (hover to see current wind gust speed)